[[{"header":{"parameterUnit":"m.s-1","parameterCategory":2,"la1":30.2991,"la2":30.254,"lo1":-89.0895,"lo2":-89.0444,"dy":0.0017,"dx":0.0017,"nx":28,"ny":28,"refTime":"2024-07-02T09:00:00:Z","depth":"0","parameterNumber":2,"parameterNumberName":"U-component_of_CURRENTS"},"data":[0,0,0,0,0,0,0,0,0,0,0,0,0,0,0,0,0,0,0,0,0,0,0,0,0,0,0,0,0,0,0,0,0,0,0,0,0,0,0,0,0,0,0,0,0,0,0,0,0,0,0,0,0,0,0,0,0,0,0.0712,0.0713,0,0.0786,0.0787,0.0788,0.0741,0.0738,0.0736,0.0734,0.0795,0.0798,0.0802,0,0,0,0,0,0,0,0,0,0,0,0,0,0.0643,0.0644,0.0712,0.0713,0.0714,0.0786,0.0788,0.0789,0.0741,0.0738,0.0735,0.0733,0.0793,0.0798,0.0802,0,0,0,0,0,0,0,0,0,0,0,0,0,0.0692,0.0644,0.0712,0.0697,0.0697,0.0786,0.0788,0.0789,0.0742,0.0738,0.0735,0.0731,0.0792,0.0797,0.0803,0.091,0,0,0.0821,0.0823,0,0,0,0,0,0,0,0,0.0689,0.0695,0.0699,0.0698,0.0698,0.0749,0.0785,0.0828,0.0743,0.0726,0.0734,0.073,0.078,0.0786,0.0811,0.0913,0.0915,0.0821,0.0825,0.0827,0.0829,0,0,0,0,0,0,0,0.0686,0.0692,0.0743,0.07,0.0699,0.0726,0.0728,0.0794,0.0773,0.0728,0.0724,0.0731,0.0779,0.0805,0.0812,0.0916,0.0821,0.0826,0.083,0.0832,0.1333,0.1343,0,0,0,0,0,0,0.0672,0.0689,0.0741,0.0745,0.0683,0.073,0.0732,0.0738,0.0773,0.0774,0.0734,0.0728,0.0797,0.0805,0.0814,0.1069,0.0827,0.0832,0.0836,0.1324,0.1336,0.1346,0,0,0,0,0,0,0.067,0.0676,0.0738,0.0717,0.0726,0.0734,0.0741,0.0741,0.0774,0.0777,0.0778,0.0765,0.0795,0.0806,0.0958,0.1065,0.0835,0.084,0.1312,0.1327,0.1341,0.1497,0,0,0,0,0,0,0.0668,0.0675,0.069,0.0716,0.0727,0.0819,0.0744,0.0745,0.0782,0.0776,0.0806,0.0807,0.0793,0.0951,0.0964,0.1069,0.0845,0.1299,0.1319,0.1336,0.148,0.1516,0.1546,0,0,0,0,0,0.0665,0.07,0.0691,0.0697,0.0742,0.0822,0.0833,0.0826,0.0787,0.0836,0.0896,0.0806,0.1078,0.0964,0.0977,0.1085,0.129,0.1313,0.1335,0.1465,0.1509,0.1546,0,0,0,0,0,0,0.0685,0.0699,0.0689,0.0727,0.0782,0.0814,0.0855,0.0851,0.0934,0.0934,0.092,0.0933,0.1117,0.1113,0.0987,0.1304,0.1176,0.1202,0.127,0.1311,0.1344,0.1357,0.085,0,0,0,0,0,0.0697,0.0724,0.0754,0.0796,0.082,0.0845,0.0877,0.0885,0.0949,0.0977,0.1005,0.1088,0.1227,0.1269,0.1374,0.1526,0.1538,0.1622,0.1656,0.1682,0.1718,0.1884,0.1932,0.1419,0.1419,0.1419,0,0,0.072,0.0731,0.0748,0.0803,0.0836,0.0945,0.0857,0.093,0.1044,0.0979,0.1145,0.1206,0.1307,0.1499,0.1578,0.1493,0.1836,0.1711,0.1731,0.1753,0.1911,0.196,0.2003,0.1434,0.1431,0.1429,0,0,0.0825,0.079,0.0875,0.0928,0.0995,0.1021,0.105,0.1111,0.1155,0.1318,0.1346,0.1492,0.1626,0.1752,0.1828,0.2124,0.2023,0.2142,0.2288,0.2448,0.2489,0.2525,0.2567,0.2606,0.2136,0.2136,0.2136,0,0.0871,0.0972,0.0922,0.1035,0.1108,0.1069,0.1221,0.1278,0.1391,0.147,0.1395,0.171,0.177,0.2062,0.2171,0.2193,0.2215,0.2096,0.2481,0.2518,0.2552,0.2587,0.2627,0.2146,0.2145,0.2144,0.2143,0,0.1071,0.115,0.1208,0.1335,0.1398,0.1518,0.1575,0.1656,0.1672,0.173,0.1969,0.2064,0.223,0.23,0.2318,0.2626,0.2538,0.2504,0.2343,0.2611,0.2633,0.2671,0.2161,0.2157,0.2154,0.2152,0,0,0.1257,0.1335,0.1378,0.1446,0.1573,0.1634,0.1823,0.199,0.2087,0.2186,0.2348,0.2615,0.2584,0.2682,0.272,0.2863,0.3111,0.2782,0.2785,0.2759,0.3383,0.3286,0.3316,0.3117,0.3126,0.3134,0.3282,0,0.1481,0.167,0.1698,0.1919,0.202,0.2039,0.2194,0.2311,0.2374,0.2495,0.2612,0.2763,0.2752,0.2799,0.2971,0.3057,0.323,0.3069,0.3187,0.319,0.3019,0.3368,0.3296,0.3423,0.332,0.3326,0.333,0,0.1755,0.1822,0.2029,0.2142,0.2195,0.2306,0.2475,0.2608,0.2757,0.2797,0.2943,0.2965,0.3201,0.3121,0.3431,0.3308,0.3408,0.3463,0.3469,0.3356,0.3171,0.316,0.3496,0.3476,0.3389,0.3384,0.338,0,0.1883,0.2092,0.2226,0.2279,0.2392,0.2485,0.2556,0.2698,0.2769,0.295,0.2969,0.3226,0.3275,0.3486,0.3557,0.3518,0.3826,0.3772,0.3804,0.3789,0.375,0.3719,0.4035,0.4099,0.4099,0.4098,0.4098,0,0.2111,0.2222,0.2262,0.2319,0.2451,0.2529,0.2665,0.2758,0.2876,0.2951,0.3084,0.3176,0.3373,0.3511,0.3636,0.3801,0.3898,0.3919,0.3888,0.38,0.3774,0.3761,0.3758,0.4104,0.4103,0.4101,0.4101,0,0.2173,0.2242,0.234,0.2443,0.248,0.2529,0.2611,0.2683,0.2809,0.2899,0.2941,0.3145,0.3332,0.3484,0.3776,0.3851,0.3983,0.4095,0.3907,0.3857,0.3858,0.3865,0.3917,0.3852,0.4193,0.4193,0.4192,0,0.2176,0.2247,0.2325,0.2341,0.2364,0.2439,0.2479,0.2613,0.2664,0.2874,0.2905,0.3116,0.325,0.3575,0.3784,0.4003,0.3967,0.4067,0.4059,0.3943,0.3931,0.3692,0.3616,0.4045,0.4043,0.4042,0.4041,0,0.215,0.2178,0.2219,0.2247,0.2276,0.231,0.2376,0.2405,0.2566,0.266,0.282,0.2957,0.3273,0.3497,0.3763,0.3906,0.392,0.4046,0.4051,0.3997,0.3645,0.3531,0.3754,0.403,0.4031,0.4032,0.4032,0.4033,0.2069,0.2068,0.2125,0.2144,0.2166,0.2177,0.219,0.2278,0.2358,0.2511,0.269,0.2888,0.3289,0.3673,0.3751,0.3922,0.3861,0.3967,0.4023,0.3812,0.3683,0.3822,0.3975,0.3976,0.3976,0.3977,0.3977,0,0.1975,0.2013,0.2024,0.2045,0.2023,0.2076,0.2122,0.2145,0.2216,0.2404,0.2552,0.2975,0.3286,0.3591,0.3959,0.3958,0.3752,0.3915,0.3654,0.3616,0.39,0.383,0.3806,0.3806,0.3806,0.3806,0.3806,0.3806,0.194,0.1941,0.196,0.1911,0.1916,0.1892,0.1901,0.1964,0.209,0.2319,0.2548,0.2757,0.3266,0.3854,0.4055,0.3997,0.382,0.3628,0.3625,0.3937,0.3945,0.3953,0.3889,0.3879,0.3879,0.3162,0.3158,0.3156]},{"header":{"parameterUnit":"m.s-1","parameterCategory":2,"la1":30.2991,"la2":30.254,"lo1":-89.0895,"lo2":-89.0444,"dy":0.0017,"dx":0.0017,"nx":28,"ny":28,"refTime":"2024-07-02T09:00:00:Z","depth":"0","parameterNumber":3,"parameterNumberName":"V-component_of_CURRENTS"},"data":[0,0,0,0,0,0,0,0,0,0,0,0,0,0,0,0,0,0,0,0,0,0,0,0,0,0,0,0,0,0,0,0,0,0,0,0,0,0,0,0,0,0,0,0,0,0,0,0,0,0,0,0,0,0,0,0,0,0,-0.0055,-0.0054,0,0.0043,0.0045,0.0046,0.0092,0.0092,0.0092,0.0091,0.0124,0.0125,0.0126,0,0,0,0,0,0,0,0,0,0,0,0,0,-0.0201,-0.0199,-0.0055,-0.0054,-0.0052,0.0043,0.0045,0.0046,0.0092,0.0092,0.0092,0.0091,0.0123,0.0125,0.0126,0,0,0,0,0,0,0,0,0,0,0,0,0,-0.0122,-0.0198,-0.0055,-0.0019,-0.0015,0.0043,0.0045,0.0046,0.0092,0.0092,0.0091,0.0091,0.0123,0.0125,0.0126,0.0141,0,0,0.0131,0.0132,0,0,0,0,0,0,0,0,-0.0127,-0.0117,-0.0025,-0.0021,-0.0017,0.0054,0.0005,0.0074,0.0092,0.0053,0.0091,0.0091,0.0094,0.0098,0.012,0.0143,0.0144,0.0131,0.0132,0.0133,0.0133,0,0,0,0,0,0,0,-0.0132,-0.0121,-0.0014,-0.0024,-0.0019,-0.0008,0.0003,0.0019,0.0074,0.0056,0.006,0.0068,0.0096,0.0118,0.012,0.0145,0.0131,0.0132,0.0133,0.0134,0.0268,0.027,0,0,0,0,0,0,-0.0147,-0.0126,-0.0017,-0.0012,-0.0075,-0.0005,0.0007,0.0033,0.0075,0.0081,0.0068,0.007,0.0116,0.0119,0.0122,0.0258,0.0133,0.0134,0.0135,0.0265,0.0268,0.0271,0,0,0,0,0,0,-0.015,-0.0137,-0.0021,-0.0069,-0.0054,-0.0002,0.0026,0.0035,0.0063,0.0085,0.009,0.0087,0.0115,0.0119,0.0161,0.0255,0.0135,0.0136,0.0262,0.0266,0.027,0.0456,0,0,0,0,0,0,-0.0154,-0.0138,-0.0125,-0.0069,-0.0051,0.0042,0.0026,0.0037,0.0068,0.0071,0.0102,0.0105,0.0116,0.0158,0.0162,0.0255,0.0137,0.0259,0.0264,0.0268,0.0446,0.0465,0.0482,0,0,0,0,0,-0.0159,-0.012,-0.0125,-0.0112,-0.0034,0.0044,0.0056,0.009,0.0069,0.0108,0.012,0.0105,0.0193,0.0161,0.0165,0.0261,0.0256,0.0262,0.0268,0.0438,0.0462,0.0481,0,0,0,0,0,0,-0.0158,-0.0111,-0.0114,-0.0059,-0.0008,0.0052,0.0089,0.0091,0.0132,0.013,0.0129,0.0135,0.0213,0.0193,0.0158,0.0309,0.0225,0.0232,0.0354,0.0375,0.0393,0.0454,0.0139,0,0,0,0,0,-0.016,-0.0124,-0.0076,-0.0028,-0.0004,0.0033,0.0062,0.0088,0.0128,0.0145,0.0163,0.0187,0.0241,0.0268,0.0299,0.0369,0.0348,0.0432,0.045,0.0466,0.0517,0.0553,0.058,0.029,0.029,0.029,0,0,-0.0143,-0.0116,-0.0092,-0.0028,0.0011,0.0108,0.0054,0.0118,0.0216,0.014,0.0258,0.0243,0.0268,0.0369,0.0402,0.0366,0.0529,0.0473,0.0487,0.053,0.0562,0.0591,0.0616,0.0294,0.0293,0.0293,0,0,-0.0038,-0.0067,0.0026,0.0066,0.0128,0.0152,0.017,0.023,0.0274,0.0354,0.0347,0.0392,0.0439,0.0514,0.0548,0.0674,0.0615,0.0662,0.0821,0.0856,0.0881,0.0903,0.0882,0.09,0.0681,0.0681,0.0681,0,-0.0002,0.0115,0.0067,0.0174,0.024,0.0182,0.0326,0.0358,0.0427,0.0488,0.0414,0.053,0.0536,0.0707,0.0761,0.0728,0.0698,0.0742,0.0883,0.0904,0.0923,0.0896,0.0915,0.0691,0.069,0.0689,0.0688,0,0.02,0.028,0.0336,0.0452,0.0497,0.0601,0.0632,0.0683,0.0678,0.0713,0.0826,0.081,0.0883,0.0893,0.0874,0.1036,0.0951,0.0894,0.0835,0.0964,0.0926,0.0942,0.0705,0.0701,0.0698,0.0696,0,0,0.0413,0.0472,0.0512,0.0596,0.066,0.0736,0.086,0.0995,0.11,0.1087,0.1223,0.1294,0.1221,0.1255,0.1215,0.1255,0.1349,0.1144,0.1141,0.1136,0.1381,0.1258,0.1261,0.1301,0.1305,0.1309,0.1288,0,0.0641,0.0836,0.0833,0.1058,0.1171,0.1143,0.1267,0.134,0.1366,0.1449,0.1413,0.1498,0.1376,0.1401,0.1421,0.1361,0.1404,0.1358,0.1247,0.1244,0.1131,0.1282,0.1179,0.1148,0.1303,0.1305,0.1307,0,0.0929,0.101,0.1223,0.1355,0.1411,0.1516,0.1684,0.1787,0.1844,0.1857,0.1874,0.1795,0.1845,0.1696,0.1675,0.1635,0.1554,0.1486,0.1482,0.1328,0.1154,0.1049,0.117,0.0952,0.133,0.1328,0.1326,0,0.1128,0.133,0.1485,0.1532,0.1642,0.1757,0.1831,0.1922,0.2007,0.2096,0.2128,0.2119,0.2093,0.2006,0.18,0.1759,0.1725,0.1643,0.1467,0.1452,0.1331,0.13,0.125,0.1688,0.1688,0.1688,0.1689,0,0.1389,0.1544,0.1581,0.1666,0.1875,0.1915,0.2117,0.2195,0.2272,0.2371,0.2322,0.2377,0.2171,0.2073,0.1899,0.1705,0.1796,0.1548,0.1475,0.1384,0.1359,0.1131,0.0989,0.1688,0.1688,0.1688,0.1688,0,0.1556,0.1598,0.1761,0.1886,0.195,0.2074,0.2214,0.2331,0.2431,0.2547,0.2571,0.2559,0.2439,0.2193,0.2031,0.1832,0.1518,0.1589,0.1458,0.1372,0.0998,0.0868,0.083,0.0668,0.1422,0.142,0.1418,0,0.1633,0.1733,0.1849,0.1929,0.1987,0.2153,0.2253,0.2378,0.2475,0.2659,0.2709,0.2662,0.2624,0.2303,0.191,0.1581,0.1416,0.1333,0.1274,0.1017,0.082,0.0817,0.0683,0.1164,0.116,0.1156,0.1154,0,0.1769,0.1781,0.1859,0.1987,0.2111,0.2249,0.2407,0.2493,0.264,0.2749,0.2892,0.2911,0.2597,0.2203,0.1738,0.1516,0.1127,0.1254,0.1054,0.0697,0.0632,0.0423,0.1091,0.1124,0.1127,0.1129,0.1131,0.1132,0.1809,0.1858,0.1929,0.2054,0.2184,0.2337,0.245,0.2578,0.2725,0.2903,0.2969,0.3032,0.2563,0.1895,0.1501,0.079,0.0877,0.064,0.0526,0.0569,0.0367,0.0947,0.0852,0.0853,0.0854,0.0855,0.0856,0,0.1861,0.1917,0.2017,0.2155,0.2267,0.2349,0.2546,0.2651,0.2787,0.2942,0.3059,0.2934,0.2233,0.1611,0.0645,0.0176,0.0047,-0.0039,-0.0067,-0.0159,0.0411,0.0349,0.006,0.006,0.006,0.0061,0.0061,0.0061,0.1897,0.1978,0.201,0.2191,0.2299,0.2482,0.2584,0.2738,0.2884,0.3054,0.313,0.3216,0.2842,0.1179,0.0007,-0.0325,-0.0673,-0.0726,-0.0854,-0.0498,-0.0442,-0.0388,-0.0474,-0.0931,-0.0932,-0.1371,-0.1377,-0.1381]}],[{"header":{"parameterUnit":"m.s-1","parameterCategory":2,"la1":30.2991,"la2":30.254,"lo1":-89.0895,"lo2":-89.0444,"dy":0.0017,"dx":0.0017,"nx":28,"ny":28,"refTime":"2024-07-02T09:00:00:Z","depth":"2","parameterNumber":2,"parameterNumberName":"U-component_of_CURRENTS"},"data":[0,0,0,0,0,0,0,0,0,0,0,0,0,0,0,0,0,0,0,0,0,0,0,0,0,0,0,0,0,0,0,0,0,0,0,0,0,0,0,0,0,0,0,0,0,0,0,0,0,0,0,0,0,0,0,0,0,0,0.0654,0.0654,0,0.0596,0.0595,0.0594,0.0527,0.0526,0.0526,0.0526,0.0488,0.0487,0.0487,0,0,0,0,0,0,0,0,0,0,0,0,0,0.0612,0.0613,0.0654,0.0654,0.0654,0.0597,0.0595,0.0594,0.0527,0.0526,0.0526,0.0526,0.0488,0.0487,0.0487,0,0,0,0,0,0,0,0,0,0,0,0,0,0.0593,0.0613,0.0654,0.0619,0.0616,0.0597,0.0595,0.0593,0.0527,0.0526,0.0526,0.0525,0.0488,0.0487,0.0486,0.0491,0,0,0.0483,0.0483,0,0,0,0,0,0,0,0,0.0594,0.0594,0.0624,0.0621,0.0618,0.0575,0.0567,0.0563,0.0527,0.0553,0.0526,0.0525,0.0524,0.052,0.05,0.0489,0.0488,0.0483,0.0483,0.0482,0.0482,0,0,0,0,0,0,0,0.0596,0.0596,0.0624,0.0624,0.0621,0.0574,0.0571,0.0564,0.0537,0.0551,0.0548,0.0553,0.0521,0.0501,0.0499,0.0487,0.0483,0.0482,0.0482,0.0481,0.065,0.0655,0,0,0,0,0,0,0.0623,0.0598,0.0626,0.0623,0.0613,0.0576,0.0572,0.0583,0.0537,0.0531,0.0553,0.055,0.0503,0.05,0.0497,0.0612,0.0482,0.0481,0.0481,0.0645,0.0651,0.0656,0,0,0,0,0,0,0.0623,0.0627,0.0628,0.0614,0.0612,0.0579,0.0591,0.0583,0.0584,0.054,0.0533,0.0567,0.0502,0.0499,0.0514,0.0605,0.0481,0.048,0.0639,0.0647,0.0654,0.077,0,0,0,0,0,0,0.0622,0.0627,0.0641,0.0616,0.0614,0.0653,0.0592,0.0582,0.059,0.0585,0.0549,0.0543,0.0502,0.0516,0.0513,0.0602,0.0479,0.0632,0.0642,0.0651,0.0759,0.078,0.0798,0,0,0,0,0,0.062,0.0651,0.0642,0.0645,0.0636,0.0656,0.0651,0.0619,0.0592,0.0612,0.0579,0.0545,0.0577,0.0517,0.0513,0.0604,0.0628,0.0639,0.065,0.0751,0.0776,0.0798,0,0,0,0,0,0,0.0645,0.0647,0.0636,0.0667,0.0678,0.0648,0.0662,0.0641,0.0627,0.0623,0.0568,0.0562,0.0621,0.0604,0.054,0.0692,0.0615,0.0626,0.0693,0.0716,0.0736,0.0759,0.0478,0,0,0,0,0,0.0659,0.0678,0.0681,0.0708,0.0721,0.0696,0.0698,0.0684,0.0671,0.0663,0.0644,0.0645,0.0665,0.0678,0.0686,0.0744,0.0714,0.082,0.0839,0.0855,0.0879,0.0878,0.0897,0.0694,0.0694,0.0694,0,0,0.0674,0.0681,0.0689,0.0714,0.0713,0.0755,0.0695,0.0722,0.0759,0.0664,0.0711,0.0699,0.0695,0.0761,0.0793,0.0756,0.0907,0.087,0.0882,0.0898,0.0892,0.091,0.0927,0.0702,0.07,0.0699,0,0,0.0723,0.0728,0.0764,0.0789,0.0814,0.0808,0.083,0.0831,0.0836,0.0874,0.0834,0.0868,0.0893,0.0909,0.0919,0.1057,0.1001,0.1095,0.121,0.1208,0.1223,0.1236,0.124,0.1252,0.1111,0.1112,0.1112,0,0.0737,0.0784,0.0781,0.0835,0.085,0.0846,0.089,0.0918,0.0925,0.0932,0.0918,0.0973,0.0968,0.1047,0.1114,0.1099,0.1087,0.1105,0.1227,0.1239,0.125,0.1251,0.1262,0.1119,0.1118,0.1117,0.1117,0,0.0814,0.0861,0.0895,0.0953,0.0974,0.1019,0.1051,0.1081,0.1086,0.1101,0.1175,0.1172,0.1197,0.1242,0.122,0.1331,0.1294,0.1234,0.1149,0.1276,0.1271,0.1281,0.1129,0.1126,0.1124,0.1122,0,0,0.0812,0.0919,0.0932,0.0954,0.1031,0.1038,0.1128,0.1174,0.1194,0.1272,0.1304,0.1409,0.1402,0.142,0.1416,0.1458,0.1536,0.1406,0.1403,0.138,0.1544,0.1572,0.1584,0.1484,0.1486,0.1488,0.1512,0,0.0864,0.0957,0.1003,0.108,0.1118,0.1142,0.1199,0.1245,0.1281,0.1324,0.1394,0.1435,0.1477,0.1477,0.1543,0.1515,0.1567,0.1536,0.1454,0.1452,0.1434,0.1599,0.1503,0.1522,0.1521,0.1523,0.1524,0,0.0913,0.0962,0.1042,0.1089,0.1103,0.1151,0.1171,0.1231,0.1321,0.1344,0.144,0.1472,0.1592,0.157,0.1661,0.1636,0.1629,0.162,0.1617,0.1611,0.15,0.1398,0.1539,0.1539,0.1538,0.1537,0.1536,0,0.0861,0.0972,0.1014,0.1046,0.1123,0.1136,0.1164,0.1232,0.1285,0.1363,0.1403,0.1518,0.1572,0.1612,0.1675,0.1648,0.1738,0.1659,0.169,0.1689,0.158,0.1567,0.172,0.172,0.172,0.172,0.172,0,0.0881,0.0914,0.0989,0.1018,0.1046,0.1088,0.1131,0.1168,0.1255,0.1342,0.1419,0.1515,0.1588,0.1667,0.1686,0.1761,0.1746,0.1762,0.172,0.1625,0.1617,0.1596,0.1581,0.1721,0.172,0.172,0.172,0,0.0845,0.0904,0.0954,0.1018,0.1038,0.1052,0.1145,0.1176,0.1245,0.1358,0.1396,0.1535,0.1638,0.1706,0.1753,0.1777,0.1808,0.1821,0.1728,0.1679,0.1749,0.1741,0.1851,0.1853,0.1854,0.1855,0.1856,0,0.0843,0.0867,0.0946,0.0975,0.1018,0.1061,0.1097,0.1175,0.1237,0.1397,0.1455,0.159,0.17,0.1804,0.1853,0.1889,0.187,0.18,0.1754,0.1827,0.1773,0.1763,0.1753,0.1644,0.1643,0.1643,0.1642,0,0.0833,0.0859,0.09,0.0965,0.1009,0.1064,0.113,0.1186,0.1294,0.1383,0.1528,0.1618,0.1766,0.181,0.1868,0.1861,0.179,0.1791,0.188,0.1645,0.1639,0.1584,0.1579,0.1636,0.1637,0.1637,0.1638,0.1638,0.0814,0.0838,0.0891,0.0948,0.0999,0.105,0.1088,0.1175,0.1271,0.1397,0.1517,0.161,0.1704,0.1771,0.1759,0.1748,0.1839,0.1748,0.1745,0.1745,0.1737,0.1736,0.1749,0.175,0.1751,0.1752,0.1753,0,0.0786,0.0818,0.0869,0.0931,0.097,0.101,0.1095,0.1131,0.1228,0.1364,0.1467,0.1444,0.1523,0.1593,0.1606,0.1635,0.1558,0.1548,0.1444,0.1455,0.1463,0.1434,0.1369,0.1367,0.1365,0.1364,0,0,0.0767,0.08,0.0834,0.0885,0.0927,0.0967,0.1006,0.1077,0.1175,0.123,0.1291,0.1443,0.1577,0.1454,0.1469,0.1431,0.1406,0.1369,0.169,0.158,0.1585,0.1609,0.1583,0,0,0,0,0]},{"header":{"parameterUnit":"m.s-1","parameterCategory":2,"la1":30.2991,"la2":30.254,"lo1":-89.0895,"lo2":-89.0444,"dy":0.0017,"dx":0.0017,"nx":28,"ny":28,"refTime":"2024-07-02T09:00:00:Z","depth":"2","parameterNumber":3,"parameterNumberName":"V-component_of_CURRENTS"},"data":[0,0,0,0,0,0,0,0,0,0,0,0,0,0,0,0,0,0,0,0,0,0,0,0,0,0,0,0,0,0,0,0,0,0,0,0,0,0,0,0,0,0,0,0,0,0,0,0,0,0,0,0,0,0,0,0,0,0,-0.0567,-0.0567,0,-0.053,-0.0529,-0.0528,-0.0455,-0.0454,-0.0453,-0.0452,-0.0387,-0.0387,-0.0386,0,0,0,0,0,0,0,0,0,0,0,0,0,-0.0608,-0.0607,-0.0567,-0.0567,-0.0567,-0.053,-0.0529,-0.0528,-0.0455,-0.0454,-0.0452,-0.0451,-0.0388,-0.0387,-0.0386,0,0,0,0,0,0,0,0,0,0,0,0,0,-0.0579,-0.0607,-0.0567,-0.0529,-0.0526,-0.053,-0.0529,-0.0528,-0.0455,-0.0454,-0.0452,-0.0451,-0.0388,-0.0387,-0.0386,-0.0412,0,0,-0.0383,-0.0382,0,0,0,0,0,0,0,0,-0.058,-0.0577,-0.0535,-0.0532,-0.0528,-0.0499,-0.052,-0.0489,-0.0456,-0.0478,-0.0452,-0.045,-0.0426,-0.0422,-0.0413,-0.0409,-0.0406,-0.0383,-0.0382,-0.0381,-0.0381,0,0,0,0,0,0,0,-0.0582,-0.0578,-0.0549,-0.0535,-0.0531,-0.0525,-0.0518,-0.0514,-0.0458,-0.0476,-0.0471,-0.0474,-0.0423,-0.0414,-0.0411,-0.0405,-0.0383,-0.0382,-0.0381,-0.0381,-0.0378,-0.0379,0,0,0,0,0,0,-0.0595,-0.058,-0.055,-0.0548,-0.0555,-0.0526,-0.0518,-0.0507,-0.0459,-0.0451,-0.0475,-0.0471,-0.0417,-0.0412,-0.0409,-0.0383,-0.0381,-0.038,-0.038,-0.0377,-0.0378,-0.0379,0,0,0,0,0,0,-0.0596,-0.0592,-0.0551,-0.0567,-0.0562,-0.0527,-0.0515,-0.0507,-0.0471,-0.0459,-0.045,-0.0445,-0.0415,-0.041,-0.0392,-0.0382,-0.038,-0.0379,-0.0377,-0.0378,-0.0378,-0.0366,0,0,0,0,0,0,-0.0597,-0.0592,-0.0584,-0.0567,-0.0562,-0.0523,-0.0516,-0.0507,-0.0479,-0.0471,-0.0431,-0.0424,-0.0414,-0.0393,-0.0391,-0.038,-0.0378,-0.0376,-0.0377,-0.0378,-0.0366,-0.0367,-0.0367,0,0,0,0,0,-0.0598,-0.0571,-0.0584,-0.0581,-0.0553,-0.0523,-0.0517,-0.0486,-0.0479,-0.045,-0.0441,-0.0424,-0.0398,-0.0393,-0.039,-0.0379,-0.0376,-0.0377,-0.0378,-0.0366,-0.0367,-0.0367,0,0,0,0,0,0,-0.0573,-0.0562,-0.0574,-0.0544,-0.0532,-0.0511,-0.0482,-0.0478,-0.0449,-0.0443,-0.043,-0.0423,-0.0407,-0.0401,-0.0396,-0.0385,-0.0385,-0.0386,-0.0377,-0.0378,-0.0378,-0.0365,-0.0377,0,0,0,0,0,-0.0575,-0.0556,-0.055,-0.053,-0.0516,-0.0505,-0.049,-0.0478,-0.0458,-0.0441,-0.0426,-0.0418,-0.0416,-0.0401,-0.0398,-0.0388,-0.0406,-0.0382,-0.0382,-0.0383,-0.0372,-0.0429,-0.0434,-0.0383,-0.0383,-0.0383,0,0,-0.0574,-0.0557,-0.0554,-0.0526,-0.0509,-0.0486,-0.0486,-0.0455,-0.0441,-0.0444,-0.0409,-0.0419,-0.0417,-0.0407,-0.0399,-0.0393,-0.0404,-0.0384,-0.0384,-0.0373,-0.0431,-0.0436,-0.044,-0.0384,-0.0384,-0.0383,0,0,-0.0548,-0.053,-0.051,-0.049,-0.0469,-0.0459,-0.0447,-0.0428,-0.0412,-0.0401,-0.0409,-0.0418,-0.0394,-0.0404,-0.0404,-0.041,-0.0411,-0.0402,-0.0382,-0.0438,-0.0442,-0.0447,-0.0461,-0.0467,-0.0394,-0.0394,-0.0394,0,-0.0551,-0.0519,-0.0499,-0.0466,-0.0457,-0.0442,-0.0425,-0.0403,-0.0389,-0.0394,-0.0381,-0.0396,-0.0396,-0.0405,-0.0403,-0.041,-0.0426,-0.0376,-0.0438,-0.0443,-0.0448,-0.0462,-0.0468,-0.0394,-0.0394,-0.0394,-0.0394,0,-0.0532,-0.0489,-0.0461,-0.0427,-0.041,-0.0383,-0.0369,-0.0356,-0.035,-0.0349,-0.0356,-0.037,-0.0376,-0.0386,-0.0387,-0.0418,-0.0413,-0.0439,-0.0434,-0.0452,-0.0465,-0.0472,-0.0393,-0.0394,-0.0394,-0.0394,0,0,-0.059,-0.0476,-0.0471,-0.0447,-0.0392,-0.0386,-0.0353,-0.0342,-0.0342,-0.0326,-0.0333,-0.0341,-0.0351,-0.0354,-0.0372,-0.0414,-0.046,-0.0427,-0.043,-0.0435,-0.0551,-0.056,-0.0568,-0.0498,-0.05,-0.0501,-0.0541,0,-0.059,-0.0523,-0.0474,-0.0427,-0.0391,-0.0368,-0.035,-0.0343,-0.0328,-0.0323,-0.0336,-0.0342,-0.0334,-0.035,-0.0382,-0.0447,-0.0479,-0.0444,-0.0537,-0.0539,-0.0542,-0.0578,-0.0535,-0.057,-0.0548,-0.0549,-0.055,0,-0.0603,-0.0552,-0.05,-0.0433,-0.0424,-0.0402,-0.04,-0.0379,-0.0356,-0.0351,-0.0336,-0.0334,-0.0355,-0.0369,-0.0447,-0.0421,-0.0474,-0.0526,-0.053,-0.0546,-0.0562,-0.0553,-0.0584,-0.0562,-0.0561,-0.056,-0.0559,0,-0.0664,-0.0577,-0.054,-0.0515,-0.044,-0.0436,-0.0415,-0.0394,-0.0365,-0.0359,-0.0339,-0.0359,-0.0363,-0.0432,-0.0485,-0.0476,-0.0589,-0.06,-0.0653,-0.0652,-0.0638,-0.0634,-0.0678,-0.0678,-0.0678,-0.0678,-0.0678,0,-0.0666,-0.063,-0.0565,-0.0533,-0.0512,-0.0479,-0.0449,-0.0434,-0.0397,-0.0348,-0.0345,-0.0318,-0.0384,-0.0426,-0.0492,-0.0577,-0.0591,-0.065,-0.0675,-0.063,-0.0626,-0.0638,-0.0633,-0.0679,-0.0679,-0.0679,-0.0679,0,-0.0666,-0.0627,-0.0567,-0.0519,-0.0506,-0.0489,-0.0411,-0.0387,-0.0374,-0.0307,-0.0297,-0.0289,-0.0345,-0.0415,-0.0541,-0.0584,-0.0687,-0.0723,-0.064,-0.0655,-0.0702,-0.0696,-0.0775,-0.0776,-0.0777,-0.0777,-0.0778,0,-0.0636,-0.0608,-0.0549,-0.0512,-0.0464,-0.0428,-0.0388,-0.0362,-0.0315,-0.0275,-0.0241,-0.0276,-0.0251,-0.0419,-0.0549,-0.0673,-0.0705,-0.0734,-0.0724,-0.0702,-0.0718,-0.071,-0.0703,-0.0688,-0.0687,-0.0687,-0.0687,0,-0.0569,-0.0558,-0.051,-0.0444,-0.0394,-0.0333,-0.0278,-0.0239,-0.0203,-0.015,-0.0098,-0.0086,-0.0225,-0.0325,-0.0522,-0.0613,-0.0708,-0.0734,-0.0761,-0.0673,-0.0625,-0.0638,-0.0634,-0.0685,-0.0685,-0.0685,-0.0686,-0.0686,-0.0518,-0.0477,-0.0429,-0.0361,-0.0307,-0.0239,-0.018,-0.0119,-0.0038,0.006,0.0028,0.0079,-0.0097,-0.0293,-0.0481,-0.0681,-0.069,-0.074,-0.0739,-0.0738,-0.0724,-0.0681,-0.0746,-0.0747,-0.0747,-0.0748,-0.0748,0,-0.0448,-0.0413,-0.0346,-0.027,-0.02,-0.0191,-0.0105,-0.0033,0.0078,0.0176,0.0242,0.016,0.0013,-0.0194,-0.0472,-0.0657,-0.0662,-0.0716,-0.0672,-0.0673,-0.0674,-0.0655,-0.0661,-0.0661,-0.0661,-0.0661,0,0,-0.0416,-0.0343,-0.0311,-0.019,-0.014,-0.005,0.0002,0.0119,0.0209,0.0356,0.0416,0.0394,0.0123,-0.005,-0.0321,-0.048,-0.053,-0.0514,-0.0567,-0.0486,-0.0484,-0.0677,-0.0649,0,0,0,0,0]}],[{"header":{"parameterUnit":"m.s-1","parameterCategory":2,"la1":30.2991,"la2":30.254,"lo1":-89.0895,"lo2":-89.0444,"dy":0.0017,"dx":0.0017,"nx":28,"ny":28,"refTime":"2024-07-02T09:00:00:Z","depth":"4","parameterNumber":2,"parameterNumberName":"U-component_of_CURRENTS"},"data":[0,0,0,0,0,0,0,0,0,0,0,0,0,0,0,0,0,0,0,0,0,0,0,0,0,0,0,0,0,0,0,0,0,0,0,0,0,0,0,0,0,0,0,0,0,0,0,0,0,0,0,0,0,0,0,0,0,0,0.0676,0.0677,0,0.0722,0.0722,0.0723,0.0755,0.0755,0.0755,0.0756,0.0777,0.0778,0.0778,0,0,0,0,0,0,0,0,0,0,0,0,0,0.0573,0.0575,0.0676,0.0677,0.0678,0.0722,0.0722,0.0723,0.0755,0.0755,0.0756,0.0756,0.0777,0.0778,0.0778,0,0,0,0,0,0,0,0,0,0,0,0,0,0.0617,0.0576,0.0676,0.07,0.0703,0.0722,0.0723,0.0723,0.0754,0.0755,0.0756,0.0756,0.0777,0.0778,0.0778,0.0768,0,0,0.0779,0.0779,0,0,0,0,0,0,0,0,0.0614,0.062,0.0696,0.0698,0.0702,0.0735,0.0694,0.0737,0.0754,0.0733,0.0756,0.0756,0.0762,0.0763,0.0768,0.0769,0.077,0.0779,0.0779,0.0779,0.0779,0,0,0,0,0,0,0,0.0611,0.0618,0.0693,0.0697,0.07,0.0694,0.0701,0.0702,0.0742,0.0735,0.0738,0.0745,0.0763,0.0768,0.0769,0.077,0.0779,0.0779,0.0779,0.0779,0.0819,0.082,0,0,0,0,0,0,0.0611,0.0616,0.0691,0.0694,0.066,0.0696,0.0703,0.0722,0.0742,0.0747,0.0745,0.0747,0.0767,0.0769,0.077,0.0822,0.0779,0.0779,0.078,0.0818,0.0819,0.082,0,0,0,0,0,0,0.0609,0.0618,0.0689,0.0656,0.0665,0.0697,0.0718,0.0723,0.0748,0.075,0.0754,0.0767,0.0768,0.077,0.0792,0.082,0.078,0.078,0.0817,0.0819,0.082,0.0885,0,0,0,0,0,0,0.0606,0.0617,0.0634,0.0657,0.0667,0.0715,0.0717,0.0723,0.0751,0.0755,0.077,0.0772,0.0768,0.0792,0.0793,0.082,0.078,0.0816,0.0818,0.082,0.0882,0.0889,0.0894,0,0,0,0,0,0.0602,0.0625,0.0635,0.0644,0.0689,0.0716,0.0721,0.0743,0.0752,0.0767,0.078,0.0772,0.0803,0.0793,0.0794,0.0822,0.0815,0.0818,0.0819,0.0879,0.0887,0.0894,0,0,0,0,0,0,0.0592,0.0632,0.0642,0.0678,0.0701,0.0722,0.0741,0.0753,0.0775,0.0784,0.0783,0.0786,0.0816,0.0806,0.0796,0.0837,0.0808,0.081,0.0853,0.086,0.0866,0.0858,0.078,0,0,0,0,0,0.0597,0.0625,0.0655,0.0684,0.0698,0.0721,0.0737,0.0754,0.0774,0.0786,0.0797,0.0808,0.082,0.0832,0.0836,0.0859,0.0844,0.0876,0.0882,0.0888,0.0881,0.0885,0.0891,0.0827,0.0827,0.0827,0,0,0.06,0.0626,0.0642,0.0684,0.0704,0.0727,0.0733,0.0766,0.0789,0.0783,0.082,0.0829,0.083,0.0859,0.0871,0.0859,0.0902,0.089,0.0895,0.0885,0.0887,0.0894,0.0899,0.0828,0.0828,0.0828,0,0,0.0613,0.0646,0.067,0.0693,0.0731,0.0744,0.0758,0.0791,0.0813,0.0845,0.0849,0.0875,0.0893,0.0903,0.0908,0.0948,0.0932,0.0955,0.0985,0.099,0.0995,0.0999,0.1003,0.1008,0.0962,0.0962,0.0962,0,0.0612,0.0651,0.0679,0.0706,0.0729,0.0754,0.078,0.0803,0.084,0.0859,0.0865,0.0905,0.0912,0.0943,0.0964,0.0963,0.0961,0.0961,0.0998,0.1002,0.1005,0.1008,0.1012,0.0965,0.0965,0.0965,0.0964,0,0.0639,0.0672,0.069,0.0732,0.0759,0.0788,0.0822,0.0851,0.0879,0.09,0.0944,0.0958,0.0979,0.0994,0.0995,0.1028,0.1019,0.1005,0.098,0.1016,0.1017,0.1019,0.097,0.0969,0.0968,0.0967,0,0,0.0623,0.0693,0.07,0.0724,0.0778,0.08,0.0842,0.0883,0.0912,0.0952,0.0985,0.1023,0.1035,0.104,0.1049,0.1062,0.1097,0.1051,0.105,0.1057,0.1112,0.1111,0.1113,0.1094,0.1095,0.1095,0.1108,0,0.0631,0.0681,0.0718,0.0764,0.079,0.0832,0.0868,0.0911,0.0947,0.0985,0.1012,0.105,0.1052,0.1075,0.1087,0.1094,0.1105,0.1095,0.1074,0.1073,0.1069,0.1117,0.1097,0.111,0.1111,0.1111,0.1111,0,0.0639,0.0673,0.072,0.0782,0.0799,0.083,0.0891,0.0931,0.0986,0.1019,0.1057,0.1078,0.1117,0.1105,0.113,0.1127,0.1122,0.1122,0.1122,0.1095,0.1077,0.1063,0.1116,0.1115,0.1115,0.1115,0.1114,0,0.0606,0.0672,0.071,0.0733,0.0804,0.0836,0.0878,0.0941,0.0982,0.1046,0.1082,0.1115,0.115,0.1145,0.1167,0.1149,0.1185,0.1153,0.1142,0.1142,0.1108,0.1102,0.1155,0.1155,0.1155,0.1154,0.1154,0,0.0596,0.0626,0.0699,0.072,0.0767,0.0827,0.0883,0.0931,0.0999,0.1051,0.1101,0.1143,0.1165,0.1193,0.1179,0.1187,0.1196,0.1154,0.1149,0.1137,0.1135,0.111,0.1105,0.1155,0.1155,0.1155,0.1155,0,0.0559,0.0607,0.0651,0.0728,0.0755,0.0793,0.0888,0.0923,0.1003,0.1071,0.1099,0.1177,0.1228,0.1246,0.1254,0.1219,0.1213,0.1208,0.1213,0.1207,0.1155,0.1153,0.1177,0.1177,0.1178,0.1178,0.1178,0,0.0547,0.0566,0.0649,0.0678,0.0717,0.0782,0.0823,0.0914,0.0956,0.1089,0.1112,0.1205,0.1248,0.1253,0.1276,0.1263,0.1247,0.1228,0.1169,0.1167,0.1159,0.1157,0.1155,0.1178,0.1178,0.1178,0.1178,0,0.0518,0.0551,0.0589,0.0648,0.0697,0.0749,0.0819,0.0844,0.0955,0.1033,0.1109,0.1155,0.1221,0.1238,0.1259,0.1238,0.123,0.1228,0.1226,0.1171,0.1168,0.116,0.1157,0.1179,0.1179,0.1178,0.1178,0,0.0494,0.0511,0.0563,0.0614,0.0671,0.0709,0.0749,0.0811,0.0869,0.1009,0.1035,0.1137,0.1211,0.1229,0.1241,0.1242,0.1206,0.1143,0.1145,0.1145,0.1133,0.1125,0.1126,0,0,0,0,0,0.0465,0.0484,0.0527,0.058,0.0635,0.0672,0.0745,0.0786,0.0887,0.0918,0.0977,0.1039,0.1103,0.1152,0.1143,0.1224,0.1203,0.121,0.1128,0.1181,0.1181,0.1173,0,0,0,0,0,0,0.0443,0.048,0.0509,0.0546,0.0576,0.063,0.0675,0.074,0.076,0.0866,0.0897,0.0987,0.1048,0.1096,0.1126,0.1141,0.1073,0.1272,0.127,0.1182,0.1181,0.1181,0.1173,0,0,0,0,0]},{"header":{"parameterUnit":"m.s-1","parameterCategory":2,"la1":30.2991,"la2":30.254,"lo1":-89.0895,"lo2":-89.0444,"dy":0.0017,"dx":0.0017,"nx":28,"ny":28,"refTime":"2024-07-02T09:00:00:Z","depth":"4","parameterNumber":3,"parameterNumberName":"V-component_of_CURRENTS"},"data":[0,0,0,0,0,0,0,0,0,0,0,0,0,0,0,0,0,0,0,0,0,0,0,0,0,0,0,0,0,0,0,0,0,0,0,0,0,0,0,0,0,0,0,0,0,0,0,0,0,0,0,0,0,0,0,0,0,0,-0.0214,-0.0214,0,-0.0233,-0.0233,-0.0233,-0.0255,-0.0255,-0.0256,-0.0256,-0.0318,-0.0319,-0.032,0,0,0,0,0,0,0,0,0,0,0,0,0,-0.0139,-0.0141,-0.0214,-0.0214,-0.0215,-0.0233,-0.0233,-0.0233,-0.0255,-0.0255,-0.0256,-0.0257,-0.0317,-0.0319,-0.032,0,0,0,0,0,0,0,0,0,0,0,0,0,-0.0165,-0.0141,-0.0214,-0.0229,-0.0231,-0.0233,-0.0233,-0.0233,-0.0255,-0.0255,-0.0256,-0.0257,-0.0317,-0.0319,-0.032,-0.0317,0,0,-0.0326,-0.0327,0,0,0,0,0,0,0,0,-0.0163,-0.0167,-0.0226,-0.0228,-0.023,-0.0244,-0.0229,-0.0264,-0.0255,-0.0244,-0.0256,-0.0257,-0.0298,-0.0301,-0.03,-0.032,-0.0323,-0.0326,-0.0327,-0.0328,-0.0328,0,0,0,0,0,0,0,-0.0162,-0.0166,-0.022,-0.0227,-0.0229,-0.0215,-0.022,-0.0235,-0.0266,-0.0245,-0.0247,-0.0251,-0.0299,-0.0298,-0.0302,-0.0323,-0.0326,-0.0328,-0.0329,-0.0329,-0.0427,-0.0428,0,0,0,0,0,0,-0.0165,-0.0165,-0.0219,-0.0221,-0.02,-0.0217,-0.0222,-0.0237,-0.0265,-0.027,-0.0251,-0.0252,-0.0295,-0.03,-0.0304,-0.0352,-0.0328,-0.0329,-0.0331,-0.0425,-0.0427,-0.0429,0,0,0,0,0,0,-0.0164,-0.017,-0.0218,-0.0194,-0.0199,-0.0218,-0.0234,-0.0237,-0.025,-0.0269,-0.0275,-0.0262,-0.0295,-0.0302,-0.0335,-0.0353,-0.033,-0.0332,-0.0423,-0.0426,-0.0428,-0.0417,0,0,0,0,0,0,-0.0162,-0.017,-0.0181,-0.0194,-0.0201,-0.0228,-0.0234,-0.0237,-0.0252,-0.0254,-0.0281,-0.0286,-0.0296,-0.0332,-0.0337,-0.0355,-0.0333,-0.0422,-0.0424,-0.0427,-0.0415,-0.0418,-0.0421,0,0,0,0,0,-0.0159,-0.0171,-0.0182,-0.0188,-0.0217,-0.0228,-0.023,-0.0243,-0.0252,-0.0257,-0.0282,-0.0286,-0.0354,-0.0334,-0.0339,-0.0359,-0.042,-0.0424,-0.0427,-0.0414,-0.0418,-0.0421,0,0,0,0,0,0,-0.0147,-0.0175,-0.0187,-0.0209,-0.0222,-0.0233,-0.0241,-0.0248,-0.0269,-0.028,-0.0295,-0.0303,-0.0346,-0.0356,-0.0333,-0.04,-0.0392,-0.0396,-0.0381,-0.0384,-0.0387,-0.0396,-0.0335,0,0,0,0,0,-0.0149,-0.0166,-0.0188,-0.0205,-0.0215,-0.0229,-0.0236,-0.0248,-0.0267,-0.0277,-0.0294,-0.0325,-0.0361,-0.0374,-0.0405,-0.0428,-0.0435,-0.045,-0.0453,-0.0455,-0.0469,-0.0485,-0.049,-0.044,-0.044,-0.044,0,0,-0.0148,-0.0166,-0.0176,-0.0203,-0.0216,-0.0232,-0.0236,-0.0254,-0.0269,-0.0281,-0.031,-0.0337,-0.0373,-0.0408,-0.0428,-0.0417,-0.0473,-0.0459,-0.046,-0.0473,-0.0489,-0.0493,-0.0498,-0.0442,-0.0442,-0.0441,0,0,-0.0155,-0.0174,-0.0193,-0.0205,-0.0231,-0.0238,-0.0246,-0.0266,-0.028,-0.0308,-0.0332,-0.0367,-0.0406,-0.0433,-0.0453,-0.0491,-0.0494,-0.0508,-0.0519,-0.0535,-0.0538,-0.0542,-0.0547,-0.0551,-0.0502,-0.0502,-0.0502,0,-0.0156,-0.0181,-0.0197,-0.0218,-0.0226,-0.0243,-0.026,-0.0276,-0.0303,-0.0314,-0.0323,-0.0393,-0.042,-0.0467,-0.049,-0.0496,-0.0504,-0.0495,-0.0535,-0.0539,-0.0543,-0.0548,-0.0552,-0.0501,-0.0501,-0.0501,-0.0501,0,-0.0182,-0.0195,-0.0206,-0.0238,-0.0249,-0.0263,-0.0288,-0.0302,-0.0319,-0.0334,-0.0384,-0.0419,-0.0457,-0.0478,-0.05,-0.0546,-0.0543,-0.0538,-0.0517,-0.0546,-0.0551,-0.0556,-0.0501,-0.0501,-0.0501,-0.0501,0,0,-0.0211,-0.0219,-0.0229,-0.0223,-0.0259,-0.0261,-0.0295,-0.0317,-0.0327,-0.0368,-0.0386,-0.0461,-0.0475,-0.0503,-0.0529,-0.0555,-0.0586,-0.0563,-0.0564,-0.0554,-0.0617,-0.0579,-0.0581,-0.0584,-0.0585,-0.0586,-0.0605,0,-0.0229,-0.0239,-0.0255,-0.026,-0.0259,-0.0279,-0.0295,-0.0319,-0.0342,-0.0362,-0.0414,-0.0448,-0.0485,-0.0502,-0.0537,-0.0578,-0.0601,-0.0582,-0.0606,-0.0607,-0.0556,-0.0586,-0.059,-0.0609,-0.061,-0.0611,-0.0611,0,-0.0259,-0.0254,-0.0254,-0.0237,-0.0243,-0.0255,-0.0267,-0.0286,-0.0327,-0.0346,-0.0393,-0.0428,-0.0492,-0.0508,-0.0588,-0.0574,-0.0606,-0.0633,-0.0633,-0.0609,-0.0579,-0.058,-0.062,-0.0619,-0.0619,-0.0618,-0.0618,0,-0.024,-0.0252,-0.0237,-0.0238,-0.0235,-0.0243,-0.0252,-0.0283,-0.0287,-0.0339,-0.0344,-0.042,-0.0449,-0.0513,-0.0584,-0.0587,-0.0658,-0.0652,-0.0647,-0.0644,-0.0673,-0.067,-0.0706,-0.0706,-0.0706,-0.0706,-0.0706,0,-0.0234,-0.0223,-0.0224,-0.0211,-0.0197,-0.0216,-0.0213,-0.0232,-0.0259,-0.0257,-0.0332,-0.0342,-0.0455,-0.0507,-0.0574,-0.0625,-0.0643,-0.0662,-0.0652,-0.0668,-0.0664,-0.0676,-0.0672,-0.0706,-0.0706,-0.0706,-0.0706,0,-0.0197,-0.02,-0.0175,-0.0176,-0.0177,-0.0168,-0.0174,-0.0171,-0.0204,-0.0205,-0.0221,-0.0289,-0.0357,-0.0456,-0.0552,-0.0592,-0.0653,-0.0664,-0.0673,-0.0661,-0.0631,-0.0627,-0.0658,-0.0657,-0.0656,-0.0655,-0.0655,0,-0.0169,-0.0154,-0.0143,-0.0131,-0.013,-0.0124,-0.0119,-0.0143,-0.014,-0.0161,-0.0157,-0.0224,-0.0277,-0.037,-0.0489,-0.0606,-0.0621,-0.0649,-0.066,-0.0642,-0.0629,-0.0627,-0.0624,-0.0653,-0.0653,-0.0653,-0.0652,0,-0.0122,-0.0125,-0.0108,-0.0083,-0.0073,-0.0054,-0.0053,-0.0037,-0.0059,-0.0084,-0.008,-0.0145,-0.0215,-0.0328,-0.0426,-0.0511,-0.0633,-0.064,-0.0643,-0.0653,-0.0637,-0.0624,-0.0623,-0.0649,-0.065,-0.065,-0.065,0,-0.01,-0.0079,-0.0068,-0.0041,-0.0022,0.0004,0.0006,0.0013,0.0018,-0.0007,-0.0,-0.0089,-0.0155,-0.0277,-0.0364,-0.0452,-0.0473,-0.0493,-0.0503,-0.0508,-0.0467,-0.0425,-0.0371,0,0,0,0,0,-0.0084,-0.0061,-0.0029,0.0001,0.0024,0.0031,0.0043,0.0038,0.0028,0.0051,0.0028,-0.0031,-0.0151,-0.0213,-0.029,-0.0369,-0.0509,-0.0462,-0.0542,-0.0632,-0.0636,-0.0612,0,0,0,0,0,0,-0.0083,-0.0053,-0.0024,0.0026,0.0052,0.0075,0.0085,0.0078,0.0088,0.0071,0.0011,-0.0033,-0.0159,-0.01,-0.0283,-0.0315,-0.037,-0.0532,-0.0533,-0.063,-0.0634,-0.0636,-0.0613,0,0,0,0,0]}]]